User: anonymous   Login
Location: Newark
(43.4306°N, 0.3089°E)
Time: 23:07:15
(UTC+00:00)
Language:

Tiros 1 despin weight - Orbit

View from above orbital plane
View from above orbital plane
View from above satellite
View from above satellite

Ground track
Ground track

The orbit data is extracted from the following two-line orbital elements,

1   115U 60002D   19231.17462780 -.00000081  00000-0  17491-4 0  9992
2   115  48.1669 292.4539 0034360 350.9475   9.0814 14.83462920167944
Epoch (UTC): 19 August 2019 04:11:27
Eccentricity: 0.0034360
inclination: 48.1669°
perigee height: 594 km
apogee height: 642 km
right ascension of ascending node: 292.4539°
argument of perigee: 350.9475°
revolutions per day: 14.83462920
mean anomaly at epoch: 9.0814°
orbit number at epoch: 16794

The dashed part of the orbit path shows where the satellite is in the earth's shadow,  

DLR